| time (UTC) | temp F | wind direction | speed MPH | gust MPH | rain 1hr in | rain 24hr in | rain mn in | humidity % | barometer mb |
| 20260901175940 | 80 | 317 | 4.0 | 11.0 | 0.00 | 0.44 | 0.06 | 83 | 1014.0 |
| 20260901175413 | 80 | 349 | 7.0 | 11.0 | 0.00 | 0.44 | 0.06 | 83 | 1014.0 |
| 20260901174913 | 80 | 339 | 4.0 | 8.0 | 0.00 | 0.44 | 0.06 | 84 | 1013.9 |
| 20260901174419 | 80 | 329 | 4.0 | 9.0 | 0.00 | 0.44 | 0.06 | 84 | 1013.8 |
| 20260901173938 | 80 | 338 | 5.0 | 9.0 | 0.00 | 0.44 | 0.06 | 84 | 1013.7 |
| 20260901173421 | 80 | 329 | 3.0 | 8.0 | 0.00 | 0.44 | 0.06 | 83 | 1013.6 |
| 20260901172926 | 80 | 335 | 3.0 | 9.0 | 0.00 | 0.44 | 0.06 | 83 | 1013.5 |
| 20260901172418 | 81 | 345 | 6.0 | 9.0 | 0.00 | 0.44 | 0.06 | 82 | 1013.5 |
| 20260901171912 | 81 | 304 | 1.0 | 4.0 | 0.00 | 0.44 | 0.06 | 81 | 1013.4 |
| 20260901171412 | 81 | 340 | 1.0 | 4.0 | 0.00 | 0.44 | 0.06 | 81 | 1013.4 |
| 20260901170915 | 81 | 300 | 0.0 | 3.0 | 0.00 | 0.44 | 0.06 | 82 | 1013.3 |
| 20260901170415 | 81 | 277 | 1.0 | 3.0 | 0.00 | 0.44 | 0.06 | 82 | 1013.3 |
| 20260901165958 | 81 | 278 | 0.0 | 3.0 | 0.00 | 0.45 | 0.06 | 81 | 1013.4 |
| 20260901165434 | 81 | 278 | 0.0 | 5.0 | 0.00 | 0.45 | 0.06 | 81 | 1013.4 |
| 20260901164915 | 81 | 273 | 1.0 | 5.0 | 0.00 | 0.45 | 0.06 | 81 | 1013.5 |
| 20260901164443 | 81 | 288 | 2.0 | 5.0 | 0.00 | 0.45 | 0.06 | 81 | 1013.5 |
| 20260901163923 | 81 | 294 | 1.0 | 4.0 | 0.00 | 0.45 | 0.06 | 81 | 1013.4 |
| 20260901163413 | 81 | 276 | 1.0 | 3.0 | 0.00 | 0.45 | 0.06 | 81 | 1013.4 |
| 20260901162920 | 81 | 276 | 0.0 | 6.0 | 0.00 | 0.45 | 0.06 | 81 | 1013.4 |
| 20260901162424 | 81 | 273 | 2.0 | 4.0 | 0.00 | 0.45 | 0.06 | 82 | 1013.3 |
| 20260901161940 | 80 | 277 | 0.0 | 5.0 | 0.00 | 0.45 | 0.06 | 82 | 1013.3 |
| 20260901161416 | 80 | 296 | 1.0 | 5.0 | 0.00 | 0.45 | 0.06 | 83 | 1013.3 |
| 20260901160923 | 80 | 285 | 1.0 | 5.0 | 0.00 | 0.45 | 0.06 | 83 | 1013.3 |
| 20260901160427 | 80 | 269 | 1.0 | 4.0 | 0.00 | 0.45 | 0.06 | 84 | 1013.2 |
| 20260901155924 | 80 | 269 | 1.0 | 4.0 | 0.00 | 0.50 | 0.06 | 85 | 1013.2 |
| 20260901155434 | 79 | 273 | 1.0 | 6.0 | 0.00 | 0.50 | 0.06 | 86 | 1013.2 |
| 20260901154942 | 79 | 272 | 2.0 | 6.0 | 0.00 | 0.50 | 0.06 | 85 | 1013.2 |
| 20260901154437 | 79 | 271 | 1.0 | 4.0 | 0.00 | 0.50 | 0.06 | 86 | 1013.2 |
| 20260901153922 | 79 | 269 | 0.0 | 0.0 | 0.00 | 0.50 | 0.06 | 87 | 1013.2 |
| 20260901153432 | 79 | 273 | 0.0 | 4.0 | 0.00 | 0.50 | 0.06 | 89 | 1013.1 |
| 20260901152934 | 78 | 272 | 0.0 | 5.0 | 0.00 | 0.50 | 0.06 | 89 | 1013.2 |
| 20260901152411 | 78 | 269 | 0.0 | 5.0 | 0.00 | 0.50 | 0.06 | 92 | 1013.3 |
| 20260901151913 | 77 | 275 | 0.0 | 4.0 | 0.00 | 0.50 | 0.06 | 93 | 1013.3 |
| 20260901151414 | 77 | 275 | 1.0 | 4.0 | 0.00 | 0.50 | 0.06 | 94 | 1013.4 |
| 20260901150918 | 77 | 286 | 0.0 | 6.0 | 0.00 | 0.50 | 0.06 | 95 | 1013.4 |
| 20260901150417 | 76 | 259 | 0.0 | 2.0 | 0.00 | 0.50 | 0.06 | 96 | 1013.4 |
| 20260901145945 | 76 | 257 | 0.0 | 0.0 | 0.00 | 0.65 | 0.06 | 97 | 1013.4 |
| 20260901145411 | 75 | 257 | 0.0 | 0.0 | 0.00 | 0.65 | 0.06 | 97 | 1013.3 |
| 20260901144936 | 75 | 212 | 0.0 | 0.0 | 0.00 | 0.65 | 0.06 | 98 | 1013.3 |
| 20260901144418 | 74 | 212 | 0.0 | 0.0 | 0.00 | 0.65 | 0.06 | 97 | 1013.4 |
| 20260901143935 | 74 | 212 | 0.0 | 0.0 | 0.00 | 0.65 | 0.06 | 98 | 1013.4 |
| 20260901143411 | 74 | 212 | 0.0 | 0.0 | 0.00 | 0.65 | 0.06 | 98 | 1013.3 |
| 20260901142915 | 74 | 211 | 0.0 | 0.0 | 0.00 | 0.65 | 0.06 | 97 | 1013.4 |
| 20260901142435 | 74 | 212 | 0.0 | 0.0 | 0.00 | 0.65 | 0.06 | 98 | 1013.4 |
| 20260901141932 | 74 | 126 | 0.0 | 0.0 | 0.00 | 0.65 | 0.06 | 98 | 1013.4 |
| 20260901141425 | 74 | 126 | 0.0 | 0.0 | 0.00 | 0.65 | 0.06 | 98 | 1013.3 |
| 20260901140933 | 73 | 126 | 0.0 | 0.0 | 0.00 | 0.65 | 0.06 | 98 | 1013.3 |
| 20260901140419 | 73 | 126 | 0.0 | 0.0 | 0.00 | 0.65 | 0.06 | 97 | 1013.3 |
| 20260901135910 | 73 | 126 | 0.0 | 0.0 | 0.00 | 0.74 | 0.06 | 97 | 1013.3 |
| 20260901135420 | 73 | 126 | 0.0 | 0.0 | 0.00 | 0.74 | 0.06 | 97 | 1013.4 |
| 20260901134927 | 73 | 126 | 0.0 | 0.0 | 0.00 | 0.74 | 0.06 | 98 | 1013.4 |
| 20260901134433 | 72 | 126 | 0.0 | 0.0 | 0.00 | 0.74 | 0.06 | 98 | 1013.4 |
| 20260901133933 | 72 | 126 | 0.0 | 0.0 | 0.00 | 0.74 | 0.06 | 97 | 1013.4 |
| 20260901133410 | 72 | 126 | 0.0 | 0.0 | 0.00 | 0.74 | 0.06 | 97 | 1013.3 |
| 20260901132943 | 72 | 126 | 0.0 | 0.0 | 0.00 | 0.74 | 0.06 | 97 | 1013.2 |
| 20260901132422 | 72 | 126 | 0.0 | 0.0 | 0.00 | 0.74 | 0.06 | 97 | 1013.2 |
| 20260901131906 | 71 | 126 | 0.0 | 0.0 | 0.00 | 0.74 | 0.06 | 97 | 1013.4 |
| 20260901131422 | 71 | 126 | 0.0 | 0.0 | 0.00 | 0.74 | 0.06 | 97 | 1013.3 |
| 20260901130921 | 71 | 126 | 0.0 | 0.0 | 0.00 | 0.74 | 0.06 | 97 | 1013.5 |
| 20260901130444 | 71 | 126 | 0.0 | 0.0 | 0.00 | 0.74 | 0.06 | 97 | 1013.5 |
| 20260901125927 | 71 | 126 | 0.0 | 0.0 | 0.00 | 0.74 | 0.06 | 97 | 1013.5 |
| 20260901125418 | 71 | 126 | 0.0 | 0.0 | 0.00 | 0.74 | 0.06 | 97 | 1013.6 |
| 20260901124931 | 71 | 126 | 0.0 | 0.0 | 0.00 | 0.74 | 0.06 | 97 | 1013.7 |
| 20260901124409 | 71 | 126 | 0.0 | 0.0 | 0.00 | 0.74 | 0.06 | 97 | 1013.6 |
| 20260901123932 | 71 | 126 | 0.0 | 0.0 | 0.00 | 0.74 | 0.06 | 97 | 1013.6 |
| 20260901123420 | 71 | 126 | 0.0 | 0.0 | 0.00 | 0.74 | 0.06 | 97 | 1013.5 |
| 20260901122936 | 70 | 126 | 0.0 | 0.0 | 0.00 | 0.74 | 0.06 | 97 | 1013.5 |
| 20260901122421 | 70 | 126 | 0.0 | 0.0 | 0.00 | 0.74 | 0.06 | 97 | 1013.5 |
| 20260901121942 | 70 | 126 | 0.0 | 0.0 | 0.00 | 0.74 | 0.06 | 97 | 1013.5 |
| 20260901121414 | 70 | 126 | 0.0 | 0.0 | 0.00 | 0.74 | 0.06 | 97 | 1013.4 |
| 20260901120926 | 70 | 130 | 0.0 | 0.0 | 0.00 | 0.74 | 0.06 | 97 | 1013.5 |
| 20260901120420 | 70 | 130 | 0.0 | 0.0 | 0.00 | 0.74 | 0.06 | 97 | 1013.5 |
| 20260901115927 | 70 | 130 | 0.0 | 0.0 | 0.00 | 0.74 | 0.06 | 97 | 1013.5 |
| 20260901115412 | 70 | 130 | 0.0 | 0.0 | 0.00 | 0.74 | 0.06 | 97 | 1013.4 |
| 20260901114916 | 70 | 130 | 0.0 | 0.0 | 0.00 | 0.74 | 0.06 | 97 | 1013.4 |
| 20260901114441 | 69 | 130 | 0.0 | 0.0 | 0.00 | 0.74 | 0.06 | 97 | 1013.4 |
| 20260901113931 | 69 | 130 | 0.0 | 0.0 | 0.00 | 0.74 | 0.06 | 97 | 1013.5 |
| 20260901113417 | 69 | 130 | 0.0 | 0.0 | 0.00 | 0.74 | 0.06 | 97 | 1013.5 |
| 20260901112959 | 69 | 130 | 0.0 | 0.0 | 0.00 | 0.74 | 0.06 | 97 | 1013.3 |
| 20260901112458 | 69 | 130 | 0.0 | 0.0 | 0.00 | 0.74 | 0.06 | 97 | 1013.2 |
| 20260901111910 | 69 | 130 | 0.0 | 0.0 | 0.00 | 0.74 | 0.06 | 97 | 1013.3 |
| 20260901111439 | 69 | 130 | 0.0 | 0.0 | 0.00 | 0.74 | 0.06 | 97 | 1013.3 |
| 20260901110934 | 69 | 130 | 0.0 | 0.0 | 0.00 | 0.74 | 0.06 | 97 | 1013.3 |
| 20260901110422 | 69 | 130 | 0.0 | 0.0 | 0.00 | 0.74 | 0.06 | 97 | 1013.3 |
| 20260901105917 | 69 | 130 | 0.0 | 0.0 | 0.00 | 0.74 | 0.06 | 97 | 1013.2 |
| 20260901105420 | 69 | 130 | 0.0 | 0.0 | 0.00 | 0.74 | 0.06 | 97 | 1013.2 |
| 20260901104427 | 69 | 130 | 0.0 | 0.0 | 0.00 | 0.74 | 0.06 | 97 | 1013.0 |
| 20260901103927 | 69 | 125 | 0.0 | 0.0 | 0.00 | 0.74 | 0.06 | 97 | 1012.9 |
| 20260901103415 | 69 | 125 | 0.0 | 0.0 | 0.00 | 0.74 | 0.06 | 97 | 1013.0 |
| 20260901102932 | 69 | 135 | 0.0 | 0.0 | 0.00 | 0.74 | 0.06 | 97 | 1013.1 |
| 20260901102412 | 69 | 137 | 0.0 | 0.0 | 0.00 | 0.74 | 0.06 | 97 | 1013.2 |
| 20260901101916 | 69 | 137 | 0.0 | 0.0 | 0.00 | 0.74 | 0.06 | 97 | 1013.2 |
| 20260901101431 | 69 | 137 | 0.0 | 0.0 | 0.00 | 0.74 | 0.06 | 97 | 1013.2 |
| 20260901100934 | 69 | 137 | 0.0 | 0.0 | 0.00 | 0.74 | 0.06 | 97 | 1013.2 |
| 20260901100420 | 69 | 138 | 0.0 | 0.0 | 0.00 | 0.74 | 0.06 | 97 | 1013.2 |
| 20260901095923 | 69 | 138 | 0.0 | 0.0 | 0.00 | 0.74 | 0.06 | 97 | 1013.2 |
| 20260901095425 | 69 | 138 | 0.0 | 0.0 | 0.00 | 0.74 | 0.06 | 97 | 1013.1 |
| 20260901094926 | 69 | 138 | 0.0 | 0.0 | 0.00 | 0.74 | 0.06 | 97 | 1013.1 |
| 20260901094421 | 69 | 138 | 0.0 | 0.0 | 0.00 | 0.74 | 0.06 | 97 | 1013.1 |
| 20260901093927 | 69 | 138 | 0.0 | 0.0 | 0.00 | 0.74 | 0.06 | 97 | 1013.3 |
| 20260901093425 | 69 | 138 | 0.0 | 0.0 | 0.00 | 0.74 | 0.06 | 97 | 1013.1 |
| 20260901092925 | 69 | 138 | 0.0 | 0.0 | 0.00 | 0.74 | 0.06 | 97 | 1013.1 |
| 20260901092419 | 69 | 138 | 0.0 | 0.0 | 0.00 | 0.74 | 0.06 | 97 | 1013.0 |
| 20260901091928 | 69 | 138 | 0.0 | 0.0 | 0.00 | 0.74 | 0.06 | 97 | 1013.0 |
| 20260901091452 | 69 | 138 | 0.0 | 0.0 | 0.00 | 0.74 | 0.06 | 97 | 1013.4 |
| 20260901090920 | 69 | 138 | 0.0 | 0.0 | 0.01 | 0.74 | 0.06 | 97 | 1013.4 |
| 20260901090431 | 69 | 138 | 0.0 | 0.0 | 0.01 | 0.74 | 0.06 | 97 | 1013.2 |
| 20260901085931 | 69 | 138 | 0.0 | 0.0 | 0.01 | 0.74 | 0.06 | 96 | 1013.2 |
| 20260901085503 | 69 | 138 | 0.0 | 0.0 | 0.01 | 0.74 | 0.06 | 96 | 1013.2 |
| 20260901084922 | 69 | 132 | 0.0 | 0.0 | 0.01 | 0.74 | 0.06 | 97 | 1013.2 |
| 20260901084423 | 69 | 132 | 0.0 | 0.0 | 0.01 | 0.74 | 0.06 | 97 | 1013.2 |
| 20260901083927 | 69 | 132 | 0.0 | 0.0 | 0.01 | 0.74 | 0.06 | 97 | 1013.2 |
| 20260901083419 | 69 | 132 | 0.0 | 0.0 | 0.01 | 0.74 | 0.06 | 97 | 1013.2 |
| 20260901082923 | 69 | 132 | 0.0 | 0.0 | 0.01 | 0.74 | 0.06 | 97 | 1013.2 |
| 20260901082428 | 69 | 132 | 0.0 | 0.0 | 0.01 | 0.74 | 0.06 | 97 | 1013.2 |
| 20260901081910 | 69 | 132 | 0.0 | 0.0 | 0.01 | 0.74 | 0.06 | 97 | 1013.1 |
| 20260901081417 | 69 | 131 | 0.0 | 0.0 | 0.00 | 0.73 | 0.05 | 96 | 1013.4 |
| 20260901080940 | 69 | 131 | 0.0 | 0.0 | 0.00 | 0.73 | 0.05 | 96 | 1013.4 |
| 20260901080414 | 69 | 131 | 0.0 | 0.0 | 0.00 | 0.73 | 0.05 | 96 | 1013.4 |
| 20260901075918 | 69 | 131 | 0.0 | 0.0 | 0.00 | 0.73 | 0.05 | 96 | 1013.4 |
| 20260901075447 | 69 | 131 | 0.0 | 0.0 | 0.00 | 0.73 | 0.05 | 96 | 1013.5 |
| 20260901074911 | 69 | 131 | 0.0 | 0.0 | 0.00 | 0.73 | 0.05 | 96 | 1013.5 |
| 20260901074458 | 69 | 131 | 0.0 | 0.0 | 0.00 | 0.73 | 0.05 | 96 | 1013.7 |
| 20260901073919 | 69 | 167 | 0.0 | 0.0 | 0.00 | 0.73 | 0.05 | 96 | 1013.6 |
| 20260901073424 | 69 | 168 | 0.0 | 0.0 | 0.00 | 0.73 | 0.05 | 96 | 1013.5 |
| 20260901073002 | 69 | 168 | 0.0 | 0.0 | 0.00 | 0.73 | 0.05 | 96 | 1013.8 |
| 20260901072415 | 69 | 168 | 0.0 | 0.0 | 0.00 | 0.73 | 0.05 | 96 | 1013.8 |
| 20260901071928 | 69 | 168 | 0.0 | 0.0 | 0.00 | 0.73 | 0.05 | 96 | 1014.0 |
| 20260901071418 | 69 | 168 | 0.0 | 0.0 | 0.00 | 0.73 | 0.05 | 96 | 1014.0 |
| 20260901070913 | 69 | 168 | 0.0 | 0.0 | 0.00 | 0.73 | 0.05 | 96 | 1014.1 |
| 20260901070416 | 69 | 168 | 0.0 | 0.0 | 0.00 | 0.73 | 0.05 | 96 | 1014.2 |
| 20260901065941 | 69 | 168 | 0.0 | 0.0 | 0.00 | 0.73 | 0.05 | 96 | 1014.2 |
| 20260901065413 | 69 | 168 | 0.0 | 0.0 | 0.00 | 0.73 | 0.05 | 96 | 1014.5 |
| 20260901064924 | 69 | 168 | 0.0 | 0.0 | 0.01 | 0.73 | 0.05 | 96 | 1014.5 |
| 20260901064409 | 69 | 168 | 0.0 | 0.0 | 0.02 | 0.73 | 0.05 | 96 | 1014.5 |
| 20260901063924 | 69 | 168 | 0.0 | 0.0 | 0.04 | 0.73 | 0.05 | 96 | 1014.6 |
| 20260901063411 | 69 | 168 | 0.0 | 0.0 | 0.05 | 0.73 | 0.05 | 96 | 1014.6 |
| 20260901062944 | 69 | 168 | 0.0 | 0.0 | 0.05 | 0.73 | 0.05 | 96 | 1014.7 |
| 20260901062415 | 69 | 168 | 0.0 | 0.0 | 0.05 | 0.73 | 0.05 | 96 | 1014.7 |
| 20260901061951 | 69 | 168 | 0.0 | 0.0 | 0.05 | 0.73 | 0.05 | 96 | 1014.7 |
| 20260901061425 | 69 | 168 | 0.0 | 0.0 | 0.05 | 0.73 | 0.05 | 96 | 1014.8 |
| 20260901060938 | 69 | 168 | 0.0 | 0.0 | 0.05 | 0.73 | 0.05 | 96 | 1014.8 |
| 20260901060439 | 69 | 168 | 0.0 | 0.0 | 0.05 | 0.73 | 0.05 | 96 | 1014.8 |
| 20260901055913 | 69 | 168 | 0.0 | 0.0 | 0.05 | 0.73 | 0.05 | 96 | 1014.8 |
| 20260901055422 | 69 | 168 | 0.0 | 0.0 | 0.05 | 0.73 | 0.05 | 96 | 1014.9 |
| 20260901054949 | 68 | 186 | 0.0 | 0.0 | 0.04 | 0.72 | 0.04 | 96 | 1015.0 |
| 20260901054437 | 69 | 186 | 0.0 | 0.0 | 0.03 | 0.71 | 0.03 | 96 | 1015.1 |
| 20260901053917 | 69 | 186 | 0.0 | 0.0 | 0.01 | 0.69 | 0.01 | 96 | 1015.2 |
| 20260901053439 | 69 | 186 | 0.0 | 0.0 | 0.00 | 0.68 | 0.00 | 96 | 1015.3 |
| 20260901052914 | 69 | 186 | 0.0 | 0.0 | 0.00 | 0.68 | 0.00 | 96 | 1015.3 |
| 20260901052411 | 69 | 186 | 0.0 | 0.0 | 0.00 | 0.68 | 0.00 | 96 | 1015.3 |
| 20260901051918 | 69 | 186 | 0.0 | 0.0 | 0.00 | 0.68 | 0.00 | 96 | 1015.1 |
| 20260901051411 | 69 | 186 | 0.0 | 0.0 | 0.00 | 0.68 | 0.00 | 96 | 1015.2 |
| 20260901050920 | 69 | 186 | 0.0 | 0.0 | 0.00 | 0.68 | 0.00 | 96 | 1015.2 |
| 20260901050424 | 69 | 186 | 0.0 | 0.0 | 0.00 | 0.68 | 0.00 | 96 | 1015.3 |
| 20260901045917 | 69 | 186 | 0.0 | 0.0 | 0.00 | 0.68 | 0.00 | 96 | 1015.3 |
| 20260901045433 | 69 | 186 | 0.0 | 0.0 | 0.00 | 0.68 | 0.00 | 96 | 1015.3 |
| 20260901044916 | 69 | 186 | 0.0 | 0.0 | 0.00 | 0.68 | 0.00 | 96 | 1015.3 |
| 20260901044418 | 69 | 186 | 0.0 | 0.0 | 0.00 | 0.68 | 0.00 | 96 | 1015.4 |
| 20260901043912 | 69 | 186 | 0.0 | 0.0 | 0.00 | 0.68 | 0.00 | 96 | 1015.4 |
| 20260901043416 | 69 | 186 | 0.0 | 0.0 | 0.00 | 0.68 | 0.00 | 96 | 1015.4 |
| 20260901042940 | 69 | 186 | 0.0 | 0.0 | 0.00 | 0.68 | 0.00 | 96 | 1015.2 |
| 20260901042411 | 69 | 186 | 0.0 | 0.0 | 0.00 | 0.68 | 0.00 | 96 | 1015.0 |
| 20260901041940 | 69 | 186 | 0.0 | 0.0 | 0.00 | 0.68 | 0.00 | 96 | 1015.1 |
| 20260901041444 | 69 | 186 | 0.0 | 0.0 | 0.00 | 0.68 | 0.00 | 96 | 1015.5 |
| 20260901040923 | 69 | 186 | 0.0 | 0.0 | 0.00 | 0.68 | 0.00 | 96 | 1015.4 |
| 20260901040434 | 69 | 186 | 0.0 | 0.0 | 0.00 | 0.68 | 0.00 | 96 | 1015.4 |
| 20260901035916 | 69 | 186 | 0.0 | 0.0 | 0.00 | 0.68 | 0.68 | 96 | 1015.5 |
| 20260901035422 | 69 | 186 | 0.0 | 0.0 | 0.00 | 0.68 | 0.68 | 96 | 1015.6 |
| 20260901034935 | 69 | 186 | 0.0 | 0.0 | 0.00 | 0.68 | 0.68 | 96 | 1015.5 |
| 20260901034416 | 69 | 186 | 0.0 | 0.0 | 0.00 | 0.68 | 0.68 | 96 | 1015.4 |
| 20260901033925 | 69 | 186 | 0.0 | 0.0 | 0.00 | 0.68 | 0.68 | 96 | 1015.6 |
| 20260901033433 | 69 | 186 | 0.0 | 0.0 | 0.00 | 0.68 | 0.68 | 96 | 1015.8 |
| 20260901032913 | 69 | 186 | 0.0 | 0.0 | 0.00 | 0.68 | 0.68 | 96 | 1015.7 |
| 20260901032434 | 69 | 186 | 0.0 | 0.0 | 0.00 | 0.68 | 0.68 | 96 | 1015.6 |
| 20260901031936 | 69 | 186 | 0.0 | 0.0 | 0.00 | 0.68 | 0.68 | 96 | 1015.7 |
| 20260901031434 | 69 | 186 | 0.0 | 0.0 | 0.00 | 0.68 | 0.68 | 96 | 1015.9 |
| 20260901030937 | 69 | 186 | 0.0 | 0.0 | 0.00 | 0.68 | 0.68 | 96 | 1016.0 |
| 20260901030432 | 69 | 186 | 0.0 | 0.0 | 0.00 | 0.68 | 0.68 | 96 | 1015.8 |
| 20260901025917 | 69 | 186 | 0.0 | 0.0 | 0.00 | 0.68 | 0.68 | 96 | 1016.0 |
| 20260901025412 | 69 | 186 | 0.0 | 0.0 | 0.00 | 0.68 | 0.68 | 96 | 1016.0 |
| 20260901024916 | 69 | 186 | 0.0 | 0.0 | 0.00 | 0.68 | 0.68 | 96 | 1016.1 |
| 20260901024455 | 69 | 186 | 0.0 | 0.0 | 0.00 | 0.68 | 0.68 | 96 | 1016.2 |
| 20260901023911 | 69 | 186 | 0.0 | 0.0 | 0.00 | 0.68 | 0.68 | 96 | 1016.2 |
| 20260901023441 | 69 | 186 | 0.0 | 0.0 | 0.00 | 0.68 | 0.68 | 96 | 1016.1 |
| 20260901022915 | 69 | 186 | 0.0 | 0.0 | 0.00 | 0.68 | 0.68 | 96 | 1016.1 |
| 20260901022412 | 69 | 186 | 0.0 | 0.0 | 0.00 | 0.68 | 0.68 | 96 | 1016.2 |
| 20260901021914 | 69 | 186 | 0.0 | 0.0 | 0.00 | 0.68 | 0.68 | 96 | 1016.3 |
| 20260901021422 | 69 | 186 | 0.0 | 0.0 | 0.00 | 0.68 | 0.68 | 96 | 1016.2 |
| 20260901020920 | 69 | 186 | 0.0 | 0.0 | 0.00 | 0.68 | 0.68 | 96 | 1016.2 |
| 20260901020451 | 69 | 186 | 0.0 | 0.0 | 0.00 | 0.68 | 0.68 | 96 | 1016.3 |
| 20260901015940 | 69 | 186 | 0.0 | 0.0 | 0.00 | 0.68 | 0.68 | 96 | 1016.2 |
| 20260901015419 | 69 | 186 | 0.0 | 0.0 | 0.00 | 0.68 | 0.68 | 96 | 1016.3 |
| 20260901014931 | 69 | 186 | 0.0 | 0.0 | 0.00 | 0.68 | 0.68 | 96 | 1016.3 |
| 20260901014415 | 69 | 186 | 0.0 | 0.0 | 0.00 | 0.68 | 0.68 | 96 | 1016.3 |
| 20260901013913 | 69 | 186 | 0.0 | 0.0 | 0.01 | 0.68 | 0.68 | 96 | 1016.3 |
| 20260901013431 | 69 | 186 | 0.0 | 0.0 | 0.01 | 0.68 | 0.68 | 96 | 1016.3 |
| 20260901012917 | 69 | 186 | 0.0 | 0.0 | 0.01 | 0.68 | 0.68 | 96 | 1016.2 |
| 20260901012441 | 69 | 186 | 0.0 | 0.0 | 0.01 | 0.68 | 0.68 | 96 | 1016.1 |
| 20260901011909 | 69 | 186 | 0.0 | 0.0 | 0.01 | 0.68 | 0.68 | 96 | 1016.1 |
| 20260901011432 | 69 | 186 | 0.0 | 0.0 | 0.01 | 0.68 | 0.68 | 96 | 1016.0 |
| 20260901010916 | 69 | 199 | 0.0 | 2.0 | 0.01 | 0.68 | 0.68 | 96 | 1016.1 |
| 20260901010443 | 69 | 199 | 0.0 | 2.0 | 0.01 | 0.68 | 0.68 | 96 | 1016.1 |
| 20260901005931 | 69 | 199 | 0.0 | 1.0 | 0.01 | 0.68 | 0.68 | 96 | 1016.1 |
| 20260901005437 | 69 | 264 | 0.0 | 1.0 | 0.01 | 0.68 | 0.68 | 96 | 1016.1 |
| 20260901004923 | 69 | 273 | 0.0 | 0.0 | 0.01 | 0.68 | 0.68 | 96 | 1016.1 |
| 20260901004425 | 69 | 273 | 0.0 | 0.0 | 0.01 | 0.68 | 0.68 | 96 | 1016.1 |
| 20260901003915 | 69 | 273 | 0.0 | 0.0 | 0.00 | 0.67 | 0.67 | 96 | 1016.1 |
| 20260901003449 | 69 | 273 | 0.0 | 0.0 | 0.00 | 0.67 | 0.67 | 96 | 1016.0 |
| 20260901002935 | 69 | 273 | 0.0 | 0.0 | 0.00 | 0.67 | 0.67 | 96 | 1016.0 |
| 20260901002425 | 69 | 273 | 0.0 | 0.0 | 0.00 | 0.67 | 0.67 | 96 | 1016.1 |
| 20260901001921 | 69 | 273 | 0.0 | 0.0 | 0.00 | 0.67 | 0.67 | 96 | 1016.0 |
| 20260901001417 | 69 | 273 | 0.0 | 0.0 | 0.00 | 0.67 | 0.67 | 96 | 1016.0 |
| 20260901000942 | 69 | 273 | 0.0 | 0.0 | 0.00 | 0.67 | 0.67 | 96 | 1016.0 |
| 20260901000450 | 69 | 273 | 0.0 | 0.0 | 0.00 | 0.67 | 0.67 | 96 | 1016.1 |
| 20260831235938 | 69 | 273 | 0.0 | 0.0 | 0.00 | 0.67 | 0.67 | 96 | 1016.1 |
| 20260831235425 | 69 | 273 | 0.0 | 0.0 | 0.00 | 0.67 | 0.67 | 96 | 1016.1 |
| 20260831234925 | 69 | 273 | 0.0 | 0.0 | 0.00 | 0.67 | 0.67 | 96 | 1016.1 |
| 20260831234422 | 69 | 273 | 0.0 | 0.0 | 0.00 | 0.67 | 0.67 | 96 | 1016.1 |
| 20260831233938 | 69 | 273 | 0.0 | 0.0 | 0.00 | 0.67 | 0.67 | 96 | 1016.1 |
| 20260831233412 | 70 | 273 | 0.0 | 1.0 | 0.00 | 0.67 | 0.67 | 96 | 1016.1 |
| 20260831232908 | 69 | 273 | 0.0 | 5.0 | 0.00 | 0.67 | 0.67 | 96 | 1016.1 |
| 20260831232417 | 69 | 273 | 2.0 | 5.0 | 0.00 | 0.67 | 0.67 | 96 | 1016.0 |
| 20260831231908 | 69 | 133 | 0.0 | 0.0 | 0.01 | 0.67 | 0.67 | 95 | 1016.0 |
| 20260831231434 | 69 | 133 | 0.0 | 0.0 | 0.01 | 0.67 | 0.67 | 95 | 1015.9 |
| 20260831230922 | 69 | 133 | 0.0 | 0.0 | 0.01 | 0.67 | 0.67 | 95 | 1015.9 |
| 20260831230434 | 69 | 133 | 0.0 | 0.0 | 0.01 | 0.67 | 0.67 | 95 | 1016.0 |
| 20260831225917 | 69 | 133 | 0.0 | 0.0 | 0.01 | 0.67 | 0.67 | 95 | 1016.2 |
| 20260831225429 | 69 | 133 | 0.0 | 0.0 | 0.01 | 0.67 | 0.67 | 95 | 1016.2 |
| 20260831224944 | 69 | 133 | 0.0 | 0.0 | 0.01 | 0.67 | 0.67 | 95 | 1016.2 |
| 20260831224428 | 69 | 133 | 0.0 | 4.0 | 0.01 | 0.67 | 0.67 | 95 | 1016.2 |
| 20260831223922 | 69 | 133 | 2.0 | 4.0 | 0.01 | 0.67 | 0.67 | 95 | 1016.2 |
| 20260831223421 | 69 | 134 | 0.0 | 0.0 | 0.01 | 0.67 | 0.67 | 95 | 1016.2 |
| 20260831222927 | 69 | 134 | 0.0 | 0.0 | 0.01 | 0.67 | 0.67 | 95 | 1016.1 |
| 20260831222435 | 69 | 134 | 0.0 | 0.0 | 0.01 | 0.67 | 0.67 | 95 | 1016.2 |
| 20260831221921 | 69 | 134 | 0.0 | 0.0 | 0.00 | 0.66 | 0.66 | 95 | 1016.2 |
| 20260831221425 | 69 | 134 | 0.0 | 0.0 | 0.00 | 0.66 | 0.66 | 95 | 1016.3 |
| 20260831220954 | 70 | 134 | 0.0 | 0.0 | 0.00 | 0.66 | 0.66 | 95 | 1016.3 |
| 20260831220418 | 70 | 134 | 0.0 | 0.0 | 0.00 | 0.66 | 0.66 | 95 | 1016.3 |
| 20260831215945 | 70 | 134 | 0.0 | 3.0 | 0.00 | 0.66 | 0.66 | 95 | 1016.4 |
| 20260831215426 | 70 | 134 | 1.0 | 4.0 | 0.01 | 0.66 | 0.66 | 95 | 1016.4 |
| 20260831214919 | 70 | 134 | 1.0 | 4.0 | 0.02 | 0.66 | 0.66 | 95 | 1016.4 |
| 20260831214434 | 70 | 125 | 0.0 | 0.0 | 0.05 | 0.66 | 0.66 | 95 | 1016.4 |
| 20260831213934 | 70 | 125 | 0.0 | 1.0 | 0.05 | 0.66 | 0.66 | 95 | 1016.4 |
| 20260831213430 | 70 | 125 | 0.0 | 1.0 | 0.05 | 0.66 | 0.66 | 95 | 1016.4 |
| 20260831212938 | 70 | 125 | 0.0 | 1.0 | 0.06 | 0.66 | 0.66 | 95 | 1016.4 |
| 20260831212424 | 70 | 125 | 0.0 | 0.0 | 0.06 | 0.66 | 0.66 | 95 | 1016.4 |
| 20260831211914 | 70 | 125 | 0.0 | 0.0 | 0.06 | 0.66 | 0.66 | 95 | 1016.5 |
| 20260831211428 | 70 | 125 | 0.0 | 3.0 | 0.07 | 0.66 | 0.66 | 95 | 1016.6 |
| 20260831210934 | 70 | 125 | 0.0 | 3.0 | 0.07 | 0.66 | 0.66 | 95 | 1016.6 |
| 20260831210500 | 70 | 131 | 0.0 | 0.0 | 0.08 | 0.66 | 0.66 | 95 | 1016.5 |
| 20260831205917 | 70 | 132 | 0.0 | 0.0 | 0.08 | 0.65 | 0.65 | 95 | 1016.6 |
| 20260831205428 | 70 | 132 | 0.0 | 0.0 | 0.09 | 0.65 | 0.65 | 95 | 1016.5 |
| 20260831204912 | 70 | 132 | 0.0 | 0.0 | 0.08 | 0.64 | 0.64 | 95 | 1016.6 |
| 20260831204443 | 70 | 132 | 0.0 | 0.0 | 0.06 | 0.61 | 0.61 | 95 | 1016.6 |
| 20260831203915 | 70 | 132 | 0.0 | 0.0 | 0.06 | 0.61 | 0.61 | 95 | 1016.6 |
| 20260831203419 | 70 | 132 | 0.0 | 0.0 | 0.08 | 0.61 | 0.61 | 95 | 1016.7 |
| 20260831202931 | 70 | 132 | 0.0 | 2.0 | 0.10 | 0.60 | 0.60 | 95 | 1016.6 |
| 20260831202421 | 70 | 132 | 0.0 | 2.0 | 0.13 | 0.60 | 0.60 | 95 | 1016.6 |
| 20260831201928 | 70 | 132 | 0.0 | 0.0 | 0.14 | 0.60 | 0.60 | 95 | 1016.6 |
| 20260831201440 | 70 | 132 | 0.0 | 0.0 | 0.13 | 0.59 | 0.59 | 95 | 1016.7 |
| 20260831200918 | 70 | 132 | 0.0 | 0.0 | 0.13 | 0.59 | 0.59 | 95 | 1016.8 |
| 20260831200418 | 70 | 132 | 0.0 | 0.0 | 0.12 | 0.58 | 0.58 | 95 | 1016.9 |
| 20260831195913 | 70 | 132 | 0.0 | 0.0 | 0.11 | 0.56 | 0.56 | 95 | 1016.9 |
| 20260831194442 | 70 | 132 | 0.0 | 0.0 | 0.12 | 0.55 | 0.55 | 95 | 1017.2 |
| 20260831193949 | 70 | 132 | 0.0 | 0.0 | 0.13 | 0.54 | 0.54 | 95 | 1017.2 |
| 20260831193418 | 70 | 132 | 0.0 | 0.0 | 0.13 | 0.52 | 0.52 | 95 | 1017.4 |
| 20260831192937 | 70 | 132 | 0.0 | 0.0 | 0.13 | 0.50 | 0.50 | 95 | 1017.4 |
| 20260831192417 | 70 | 132 | 0.0 | 0.0 | 0.11 | 0.46 | 0.46 | 95 | 1017.4 |
| 20260831191917 | 70 | 132 | 0.0 | 0.0 | 0.11 | 0.46 | 0.46 | 95 | 1017.4 |
| 20260831191427 | 70 | 132 | 0.0 | 0.0 | 0.12 | 0.46 | 0.46 | 96 | 1017.4 |
| 20260831190929 | 70 | 132 | 0.0 | 0.0 | 0.13 | 0.46 | 0.46 | 96 | 1017.4 |
| 20260831190440 | 70 | 132 | 0.0 | 0.0 | 0.12 | 0.45 | 0.45 | 96 | 1017.3 |
| 20260831185918 | 70 | 132 | 0.0 | 0.0 | 0.12 | 0.45 | 0.45 | 96 | 1017.4 |
| 20260831185445 | 70 | 132 | 0.0 | 0.0 | 0.12 | 0.45 | 0.45 | 96 | 1017.4 |
| 20260831184928 | 70 | 132 | 0.0 | 0.0 | 0.11 | 0.44 | 0.44 | 95 | 1017.4 |
| 20260831184416 | 70 | 132 | 0.0 | 0.0 | 0.10 | 0.43 | 0.43 | 95 | 1017.3 |
| 20260831183924 | 70 | 132 | 0.0 | 0.0 | 0.08 | 0.41 | 0.41 | 95 | 1017.4 |
| 20260831183458 | 70 | 132 | 0.0 | 0.0 | 0.06 | 0.39 | 0.39 | 95 | 1017.5 |
| 20260831182921 | 70 | 132 | 0.0 | 2.0 | 0.03 | 0.36 | 0.36 | 96 | 1017.6 |
| 20260831182444 | 70 | 132 | 0.0 | 2.0 | 0.02 | 0.35 | 0.35 | 96 | 1017.7 |
| 20260831181923 | 70 | 132 | 0.0 | 2.0 | 0.03 | 0.35 | 0.35 | 96 | 1017.6 |
| 20260831181514 | 70 | 132 | 0.0 | 2.0 | 0.03 | 0.34 | 0.34 | 95 | 1017.6 |
| 20260831180935 | 70 | 132 | 0.0 | 1.0 | 0.03 | 0.33 | 0.33 | 96 | 1017.7 |
| 20260831180435 | 70 | 132 | 0.0 | 1.0 | 0.03 | 0.33 | 0.33 | 96 | 1017.7 |